This is the latest recevied weather packets stored in our database for station/object KC9MWQ-13. If no packets are shown the sender has not sent any weather packets the latest 10 day(s).
| Time | Temp. | Humidity | Pressure | Rain* | Wind** | Luminosity | Snow |
|---|---|---|---|---|---|---|---|
| 1777684462 | 6.11° C | 74% | 1017.7 hPa | 0 mm | - | 0 W/m² | - |
| 1777684159 | 6.67° C | 72% | 1017.9 hPa | 0 mm | - | 0 W/m² | - |
| 1777683856 | 6.67° C | 69% | 1017.7 hPa | 0 mm | - | 0 W/m² | - |
| 1777683552 | 6.67° C | 71% | 1017.6 hPa | 0 mm | - | 0 W/m² | - |
| 1777683250 | 7.22° C | 70% | 1017.8 hPa | 0 mm | - | 0 W/m² | - |
| 1777682948 | 7.22° C | 70% | 1017.2 hPa | 0 mm | - | 0 W/m² | - |
| 1777682644 | 7.22° C | 71% | 1017.3 hPa | 0 mm | - | 0 W/m² | - |
| 1777682341 | 7.22° C | 69% | 1017.3 hPa | 0 mm | - | 2 W/m² | - |
| 1777682039 | 7.78° C | 68% | 1017.3 hPa | 0 mm | - | 4 W/m² | - |
| 1777681734 | 7.78° C | 68% | 1017.5 hPa | 0 mm | - | 7 W/m² | - |
| 1777681432 | 7.78° C | 68% | 1017.3 hPa | 0 mm | - | 9 W/m² | - |
| 1777681129 | 7.78° C | 67% | 1017.4 hPa | 0 mm | - | 12 W/m² | - |
| 1777680826 | 8.33° C | 65% | 1017.3 hPa | 0 mm | - | 15 W/m² | - |
| 1777680524 | 8.33° C | 64% | 1017.5 hPa | 0 mm | - | 18 W/m² | - |
| 1777680222 | 8.33° C | 64% | 1017.4 hPa | 0 mm | - | 22 W/m² | - |
| 1777679918 | 8.33° C | 64% | 1017.3 hPa | 0 mm | - | 25 W/m² | - |
| 1777679614 | 8.33° C | 64% | 1017.4 hPa | 0 mm | - | 29 W/m² | - |
| 1777679309 | 8.89° C | 64% | 1017.4 hPa | 0 mm | - | 30 W/m² | - |
| 1777679007 | 8.89° C | 64% | 1017.1 hPa | 0 mm | - | 34 W/m² | - |
| 1777678705 | 8.89° C | 63% | 1017.2 hPa | 0 mm | - | 36 W/m² | - |
| 1777678402 | 9.44° C | 63% | 1017.2 hPa | 0 mm | - | 46 W/m² | - |
| 1777678097 | 10° C | 61% | 1016.9 hPa | 0 mm | - | 52 W/m² | - |
| 1777677795 | 10° C | 60% | 1017.2 hPa | 0 mm | - | 66 W/m² | - |
| 1777677493 | 10° C | 59% | 1017.1 hPa | 0 mm | - | 72 W/m² | - |
| 1777677190 | 9.44° C | 60% | 1017.1 hPa | 0 mm | - | 52 W/m² | - |
* Rain latest hour (hover to see other rain measurements)
** Current wind speed in m/s (hover to see current wind gust speed)